Location: Pontbriand
(46.1542°N, 71.2542°W)
Time: 17:30:34
(UTC+00:00)

Envisat - Pass Details

Date: 05 October 2022
Orbit: 763 x 765 km, 98.2° (Epoch: 30 November)

Event Time Altitude Azimuth Distance (km) Brightness Sun altitude
Rises 09:23:20 0° 11° (NNE) 3,245 6.5 -15.6°
Reaches altitude 10° 09:25:39 10° 10° (N) 2,314 5.7 -15.2°
Maximum altitude 09:30:44 75° 286° (WNW) 798 2.9 -14.3°
Drops below altitude 10° 09:35:47 10° 202° (SSW) 2,296 5.2 -13.4°
Sets 09:38:05 0° 201° (SSW) 3,217 6.0 -13.0°
